TimeCST,TemperatureF,Dew PointF,Humidity,Sea Level PressureIn,VisibilityMPH,Wind Direction,Wind SpeedMPH,Gust SpeedMPH,PrecipitationIn,Events,Conditions,WindDirDegrees,DateUTC
6:00 AM,74,71,88,29.88,12,NE,3.5,,,,Scattered Clouds,50,2013-07-12 12:00:00
6:00 AM,73.4,71.6,94,29.87,6.2,NE,3.5,-,N/A,,Scattered Clouds,50,2013-07-12 12:00:00
7:00 AM,75.2,71.6,89,29.89,6.2,SE,3.5,-,N/A,,Scattered Clouds,130,2013-07-12 13:00:00
8:00 AM,78.8,73.4,83,29.91,6.2,North,3.5,-,N/A,,Scattered Clouds,10,2013-07-12 14:00:00
9:00 AM,80,73,74,29.94,12,East,3.5,,,,Overcast,80,2013-07-12 15:00:00
9:00 AM,80.6,73.4,79,29.92,6.2,East,3.5,-,N/A,,Mostly Cloudy,80,2013-07-12 15:00:00
10:00 AM,82.4,75.2,79,29.92,6.2,South,4.6,-,N/A,,Scattered Clouds,170,2013-07-12 16:00:00
11:00 AM,82.4,73.4,74,29.91,6.2,South,5.8,-,N/A,,Mostly Cloudy,180,2013-07-12 17:00:00
12:00 PM,84,75,67,29.90,12,South,6.7,,,,Overcast,180,2013-07-12 18:00:00
12:00 PM,84.2,75.2,74,29.89,6.2,South,3.5,-,N/A,,Mostly Cloudy,180,2013-07-12 18:00:00
1:00 PM,87.8,73.4,62,29.86,6.2,SSE,3.5,-,N/A,,Mostly Cloudy,160,2013-07-12 19:00:00
2:00 PM,87.8,73.4,62,29.82,6.2,South,4.6,-,N/A,,Mostly Cloudy,180,2013-07-12 20:00:00
3:00 PM,87,76,61,29.83,12,WSW,5.8,,,,Overcast,250,2013-07-12 21:00:00
3:00 PM,87.8,75.2,66,29.81,6.2,WSW,5.8,-,N/A,,Mostly Cloudy,250,2013-07-12 21:00:00
4:00 PM,82.4,73.4,74,29.82,6.2,West,11.5,-,N/A,,Mostly Cloudy,270,2013-07-12 22:00:00
5:00 PM,80.6,73.4,79,29.84,6.2,WSW,3.5,-,N/A,Rain,Light Rain,250,2013-07-12 23:00:00
6:00 PM,80,74,79,29.88,12,North,3.5,,,,Overcast,350,2013-07-13 00:00:00
6:00 PM,80.6,75.2,84,29.86,6.2,North,3.5,-,N/A,,Mostly Cloudy,350,2013-07-13 00:00:00
7:00 PM,78.8,75.2,89,29.88,6.2,ENE,4.6,-,N/A,Rain,Light Rain,70,2013-07-13 01:00:00
8:00 PM,78.8,75.2,89,29.88,6.2,ENE,5.8,-,N/A,,Light Drizzle,60,2013-07-13 02:00:00